Flag for Switzerland Weather past 2 weeks in Köniz, Bern, Switzerland

Now
32 °F

Snow showers. Dense fog.


Feels Like: 32 °F
Forecast: 16 / 35 °F
Wind: 1 mph from North

Location: Bern / Belp

Current Time: Jan 27, 2015 at 5:29:57 AM

Latest Report: Jan 27, 2015 at 4:50 AM


Visibility: 1 mi

Pressure: 30.15 "Hg

Humidity: 93%

Dew point: 30 °F

Location of KönizLocation

Historic Weather in Köniz — Graph

°F

Köniz temperature yesterday

Maximum temperature yesterday: 30 °F (at 11:50 AM)
Minimum temperature yesterday: 23 °F (at 1:20 AM)
Average temperature yesterday: 28 °F

Past Weeks' High & Low Weather Summary

 TemperatureHumidityPressure
High52 °F (Jan 14, 12:50 AM)100% (Jan 12, 10:20 PM)30.45 "Hg (Jan 12, 10:20 PM)
Low21 °F (Jan 13, 7:20 AM)47% (Jan 13, 8:20 PM)29.65 "Hg (Jan 16, 3:50 PM)
Average33 °F87%30.01 "Hg
* Reported Jan 12 4:20 AM — Jan 27 4:20 AM, Köniz, Weather by CustomWeather, © 2014

Note: Actual official high and low records may vary slightly from our data, if they occured in-between our weather recording intervals... More about our weather records

Advertising

Köniz weather history for previous 24 hours

 ConditionsComfort  
Time TempWeatherWind HumidityBarometerVisibility
4:20 AM
Jan 27
30 °FSnow showers. Ice fog.2 mph100%30.15 "Hg1 mi
3:50 AM30 °FIce fog.1 mph100%30.15 "Hg1 mi
3:20 AM30 °FIce fog.1 mph100%30.15 "Hg1 mi
2:50 AM30 °FSnow. Ice fog.No wind100%30.18 "Hg1 mi
2:20 AM30 °FSnow. Ice fog.2 mph100%30.18 "Hg1 mi
1:50 AM30 °FSnow. Ice fog.1 mph100%30.18 "Hg1 mi
1:20 AM30 °FSnow. Ice fog.2 mph100%30.18 "Hg1 mi
12:50 AM30 °FSnow showers. Passing clouds.3 mph93%30.18 "Hg1 mi
12:20 AM30 °FSnow showers. Partly cloudy.2 mph93%30.18 "Hg1 mi
11:50 PM
Jan 26
30 °FDrizzle. Ice fog.2 mph100%30.18 "Hg2 mi
11:20 PM30 °FSnow. Ice fog.5 mph100%30.18 "Hg1 mi
10:50 PM30 °FSnow. Passing clouds.2 mph93%30.18 "Hg1 mi
10:20 PM30 °FSnow. Partly cloudy.1 mph93%30.18 "Hg1 mi
9:50 PM30 °FSnow. Partly cloudy.1 mph93%30.21 "Hg1 mi
9:20 PM30 °FSnow. Partly cloudy.2 mph93%30.18 "Hg1 mi
8:50 PM30 °FSnow. Partly cloudy.2 mph93%30.21 "Hg1 mi
8:20 PM30 °FSnow. Partly cloudy.2 mph93%30.21 "Hg1 mi
7:50 PM28 °FSnow. Partly cloudy.2 mph100%30.21 "Hg1 mi
7:20 PM28 °FSnow. Partly cloudy.1 mph100%30.21 "Hg1 mi
6:50 PM28 °FSnow. Ice fog.1 mph100%30.21 "Hg1 mi
6:20 PM28 °FSnow. Ice fog.1 mph100%30.21 "Hg1 mi
5:50 PM28 °FSnow. Partly cloudy.1 mph100%30.24 "Hg1 mi
5:20 PM28 °FSnow. Partly sunny.1 mph100%30.24 "Hg1 mi
4:50 PM30 °FSnow. Ice fog.1 mph93%30.24 "Hg1 mi
4:20 PM30 °FSprinkles. Ice fog.1 mph93%30.24 "Hg2 mi
3:50 PM30 °FSprinkles. Ice fog.1 mph86%30.24 "Hg2 mi
3:20 PM30 °FSnow flurries. Broken clouds.1 mph86%30.24 "Hg3 mi
2:50 PM30 °FSnow flurries. Broken clouds.No wind86%30.27 "Hg3 mi
2:20 PM30 °FLight snow. Broken clouds.2 mph86%30.27 "Hg2 mi
1:50 PM30 °FLight snow. Broken clouds.5 mph86%30.27 "Hg1 mi
1:20 PM30 °FLight snow. Cloudy.1 mph86%30.27 "Hg3 mi
12:50 PM30 °FSprinkles. Cloudy.3 mph80%30.30 "Hg3 mi
12:20 PM30 °FSnow flurries. Broken clouds.2 mph75%30.30 "Hg3 mi
11:50 AM30 °FSnow flurries. Broken clouds.2 mph75%30.33 "Hg6 mi
11:20 AM28 °FSnow flurries. Broken clouds.1 mph80%30.33 "Hg6 mi
10:50 AM28 °FLight snow. Broken clouds.6 mph86%30.33 "Hg4 mi
10:20 AM28 °FLight snow. Broken clouds.5 mph86%30.33 "Hg3 mi
9:50 AM28 °FLight snow. Broken clouds.5 mph80%30.33 "Hg3 mi
9:20 AM27 °FBroken clouds.2 mph86%30.33 "Hg3 mi
8:50 AM27 °FMore clouds than sun.3 mph80%30.33 "HgN/A
8:20 AM27 °FMore clouds than sun.5 mph80%30.33 "HgN/A
7:50 AM25 °FPartly cloudy.6 mph86%30.33 "HgN/A
7:20 AM25 °FPassing clouds.5 mph86%30.33 "HgN/A
6:50 AM25 °FPassing clouds.3 mph86%30.33 "HgN/A
6:20 AM25 °FPassing clouds.5 mph86%30.33 "HgN/A
5:50 AM25 °FPassing clouds.5 mph86%30.33 "HgN/A
5:20 AM25 °FCold.6 mph86%30.33 "HgN/A
Weather by CustomWeather, © 2014

See weather overviewHow to use our weather pages